{"data":{"norad_id":65106,"intl_designator":"2025-168A","name":"HULIANWANG DIGUI-49","alt_names":[],"object_type":"PAYLOAD","status":"ACTIVE","operator":null,"country":"PRC","launch_date":"2025-08-04","launch_site_code":"WSC","launch_vehicle":null,"mission":null,"orbit_class":"UNKNOWN","rcs_meters":null,"size_class":null,"mass_kg":null,"dimensions":null,"purposes":[],"wikipedia_slug":null,"has_3d_model":false,"image_url":null,"decayed_at":null,"tle_current":{"epoch":"2026-05-25T03:45:11.357280Z","epoch_age_seconds":51811,"freshness":"FRESH","line1":"1 65106U 25168A   26145.15638145 -.00000071  00000+0  11421-3 0  9991","line2":"2 65106  50.0042  48.5662 0008528  33.8082 326.3333 13.29317710 39626","mean_motion":13.2931771,"eccentricity":0.0008528,"inclination_deg":50.0042,"raan_deg":48.5662,"arg_perigee_deg":33.8082,"mean_anomaly_deg":326.3333,"bstar":0.00011421,"rev_number":3962,"period_min":108.32624805698,"perigee_km":1142.9184367612,"apogee_km":1155.7572978949,"semimajor_km":7527.4748673281,"source":"CELESTRAK","updated_at":"2026-05-25T13:38:05.133175Z"}}}